This is the latest recevied weather packets stored in our database for station/object W1RCP. If no packets are shown the sender has not sent any weather packets the latest 10 day(s).
| Time | Temp. | Humidity | Pressure | Rain* | Wind** | Luminosity | Snow |
|---|---|---|---|---|---|---|---|
| 1778011384 | 29.44° C | 36% | 1025.6 hPa | 0 mm | - | 694 W/m² | - |
| 1778011079 | 28.89° C | 36% | 1025.7 hPa | 0 mm | - | 717 W/m² | - |
| 1778010777 | 28.89° C | 37% | 1025.8 hPa | 0 mm | - | 690 W/m² | - |
| 1778010474 | 28.89° C | 38% | 1026 hPa | 0 mm | - | 672 W/m² | - |
| 1778010171 | 28.89° C | 36% | 1026.3 hPa | 0 mm | - | 703 W/m² | - |
| 1778009866 | 28.89° C | 39% | 1026 hPa | 0 mm | - | 747 W/m² | - |
| 1778009564 | 29.44° C | 35% | 1026.1 hPa | 0 mm | - | 768 W/m² | - |
| 1778009262 | 28.89° C | 39% | 1026.1 hPa | 0 mm | - | 759 W/m² | - |
| 1778008959 | 28.33° C | 38% | 1026.3 hPa | 0 mm | - | 794 W/m² | - |
| 1778008657 | 28.89° C | 39% | 1026.4 hPa | 0 mm | - | 804 W/m² | - |
| 1778008356 | 29.44° C | 39% | 1026.5 hPa | 0 mm | - | 821 W/m² | - |
| 1778008051 | 28.33° C | 38% | 1026.4 hPa | 0 mm | - | 861 W/m² | - |
| 1778007752 | 27.78° C | 39% | 1026.2 hPa | 0 mm | - | 885 W/m² | - |
| 1778007448 | 28.33° C | 38% | 1026.5 hPa | 0 mm | - | 219 W/m² | - |
| 1778007145 | 28.89° C | 37% | 1026.5 hPa | 0 mm | - | 810 W/m² | - |
| 1778006841 | 28.33° C | 39% | 1026.4 hPa | 0 mm | - | 790 W/m² | - |
| 1778006539 | 27.78° C | 38% | 1026.7 hPa | 0 mm | - | 832 W/m² | - |
| 1778006235 | 27.78° C | 39% | 1026.6 hPa | 0 mm | - | 840 W/m² | - |
| 1778005933 | 27.78° C | 39% | 1026.5 hPa | 0 mm | - | 846 W/m² | - |
| 1778005628 | 28.33° C | 41% | 1026.7 hPa | 0 mm | - | 633 W/m² | - |
| 1778005326 | 27.78° C | 39% | 1026.7 hPa | 0 mm | - | 713 W/m² | - |
| 1778005022 | 28.33° C | 38% | 1026.7 hPa | 0 mm | - | 859 W/m² | - |
| 1778004720 | 28.33° C | 39% | 1026.5 hPa | 0 mm | - | 889 W/m² | - |
| 1778004416 | 27.78° C | 41% | 1026.6 hPa | 0 mm | - | 848 W/m² | - |
| 1778004113 | 27.78° C | 38% | 1026.6 hPa | 0 mm | - | 843 W/m² | - |
* Rain latest hour (hover to see other rain measurements)
** Current wind speed in m/s (hover to see current wind gust speed)